TimeEST,TemperatureF,Dew PointF,Humidity,Sea Level PressureIn,VisibilityMPH,Wind Direction,Wind SpeedMPH,Gust SpeedMPH,PrecipitationIn,Events,Conditions,WindDirDegrees,DateUTC
12:54 AM,46.9,33.1,59,30.07,10.0,WSW,5.8,-,N/A,,Mostly Cloudy,240,2012-12-24 05:54:00
1:54 AM,48.0,32.0,54,30.08,10.0,SW,8.1,-,N/A,,Partly Cloudy,230,2012-12-24 06:54:00
2:54 AM,44.1,33.1,65,30.08,10.0,SW,5.8,-,N/A,,Clear,220,2012-12-24 07:54:00
3:54 AM,39.9,32.0,73,30.06,10.0,Calm,Calm,-,N/A,,Clear,0,2012-12-24 08:54:00
4:54 AM,39.0,35.1,86,30.06,10.0,SW,4.6,-,N/A,,Partly Cloudy,220,2012-12-24 09:54:00
5:54 AM,44.1,34.0,68,30.07,10.0,SW,4.6,-,N/A,,Scattered Clouds,220,2012-12-24 10:54:00
6:54 AM,44.1,34.0,68,30.09,10.0,WSW,3.5,-,N/A,,Mostly Cloudy,240,2012-12-24 11:54:00
7:54 AM,45.0,35.1,68,30.07,10.0,Calm,Calm,-,N/A,,Clear,0,2012-12-24 12:54:00
8:54 AM,48.0,34.0,58,30.09,10.0,SW,5.8,-,N/A,,Partly Cloudy,230,2012-12-24 13:54:00
10:54 AM,54.0,36.0,51,30.09,10.0,SW,6.9,-,N/A,,Clear,230,2012-12-24 15:54:00
11:54 AM,57.9,36.0,44,30.04,10.0,SW,4.6,-,N/A,,Clear,220,2012-12-24 16:54:00
12:54 PM,62.1,35.1,37,30.01,10.0,SSW,6.9,-,N/A,,Clear,210,2012-12-24 17:54:00
1:54 PM,63.0,28.9,28,29.99,10.0,WSW,12.7,-,N/A,,Partly Cloudy,240,2012-12-24 18:54:00
2:54 PM,62.1,32.0,32,29.98,10.0,SW,4.6,-,N/A,,Clear,220,2012-12-24 19:54:00
3:54 PM,60.1,37.0,42,29.98,10.0,Calm,Calm,-,N/A,,Clear,0,2012-12-24 20:54:00
4:54 PM,54.0,41.0,62,29.97,10.0,Calm,Calm,-,N/A,,Clear,0,2012-12-24 21:54:00
5:54 PM,51.1,43.0,74,29.98,10.0,Calm,Calm,-,N/A,,Mostly Cloudy,0,2012-12-24 22:54:00
6:54 PM,52.0,43.0,71,29.94,10.0,Calm,Calm,-,0.00,Rain,Light Rain,0,2012-12-24 23:54:00
7:54 PM,54.0,42.1,64,29.96,10.0,SW,5.8,-,0.00,,Overcast,220,2012-12-25 00:54:00
8:54 PM,50.0,46.0,86,29.96,10.0,Calm,Calm,-,0.02,,Overcast,0,2012-12-25 01:54:00
9:54 PM,52.0,45.0,77,29.97,10.0,SSW,4.6,-,N/A,,Overcast,210,2012-12-25 02:54:00
10:54 PM,51.1,46.9,86,29.96,10.0,Calm,Calm,-,N/A,,Overcast,0,2012-12-25 03:54:00
11:54 PM,51.1,46.9,86,29.96,10.0,Calm,Calm,-,N/A,,Overcast,0,2012-12-25 04:54:00